When you browse on this site, cookies collect data to enhance your experience and personalize the content and advertising you see.
Visit our Privacy Policy to learn more. By continuing to use the site, you agree to this use of cookies and data.
  • En España
  • Lista de países
  • Para 7 días
  • Temperatura del agua
  • Mapa Satelital
  • El tiempo en el mapa
  • Informadores
  • user-avatar
    Iniciar sesión

    Tiempo cada hora Ust-Kolpna

    Hoy, 17 Junio, Lunes

    Tiempo Temperatura Precipitaciones Viento Presión Humedad
    00:00 +15°C° 0 mm 1 mps 745 mmHg 89%
    01:00 +15°C° 0 mm 1 mps 745 mmHg 89%
    02:00 +15°C° 0 mm 1 mps 746 mmHg 89%
    03:00 +14°C° 0 mm 1 mps 746 mmHg 89%
    04:00 +15°C° 0 mm 1 mps 746 mmHg 88%
    05:00 +16°C° 0 mm 1 mps 746 mmHg 87%
    06:00 +16°C° 0 mm 1 mps 746 mmHg 87%
    07:00 +19°C° 0 mm 1 mps 746 mmHg 83%
    08:00 +20°C° 0 mm 1 mps 746 mmHg 79%
    09:00 +20°C° 0 mm 2 mps 746 mmHg 75%
    10:00 +21°C° 0.1 mm 2 mps 746 mmHg 71%
    11:00 +22°C° 0.1 mm 3 mps 746 mmHg 67%
    12:00 +24°C° 0.1 mm 3 mps 746 mmHg 64%
    13:00 +24°C° 0 mm 3 mps 746 mmHg 62%
    14:00 +24°C° 0 mm 3 mps 746 mmHg 61%
    15:00 +25°C° 0 mm 3 mps 746 mmHg 59%
    16:00 +25°C° 0 mm 3 mps 745 mmHg 63%
    17:00 +24°C° 0 mm 3 mps 745 mmHg 68%
    18:00 +24°C° 0 mm 3 mps 745 mmHg 72%
    19:00 +22°C° 0.1 mm 3 mps 745 mmHg 76%
    20:00 +20°C° 0.1 mm 2 mps 745 mmHg 80%
    21:00 +19°C° 0.1 mm 2 mps 745 mmHg 84%
    22:00 +18°C° 0 mm 2 mps 745 mmHg 84%
    23:00 +18°C° 0 mm 2 mps 745 mmHg 84%

    Mañana, 18 Junio, Martes

    Tiempo Temperatura Precipitaciones Viento Presión Humedad
    00:00 +17°C° 0 mm 2 mps 745 mmHg 84%
    01:00 +17°C° 0.2 mm 2 mps 745 mmHg 86%
    02:00 +17°C° 0.2 mm 2 mps 744 mmHg 88%
    03:00 +17°C° 0.2 mm 2 mps 744 mmHg 90%
    04:00 +17°C° 0.8 mm 2 mps 744 mmHg 91%
    05:00 +18°C° 0.8 mm 2 mps 744 mmHg 93%
    06:00 +18°C° 0.8 mm 3 mps 744 mmHg 94%
    07:00 +19°C° 0.5 mm 2 mps 744 mmHg 92%
    08:00 +20°C° 0.5 mm 2 mps 744 mmHg 89%
    09:00 +21°C° 0.5 mm 2 mps 744 mmHg 87%
    10:00 +23°C° 0 mm 2 mps 744 mmHg 84%
    11:00 +22°C° 0 mm 3 mps 744 mmHg 82%
    12:00 +24°C° 0 mm 3 mps 744 mmHg 80%
    13:00 +25°C° 0.4 mm 3 mps 744 mmHg 77%
    14:00 +25°C° 0.4 mm 3 mps 743 mmHg 75%
    15:00 +26°C° 0.4 mm 4 mps 743 mmHg 72%
    16:00 +26°C° 0.3 mm 3 mps 744 mmHg 72%
    17:00 +26°C° 0.3 mm 3 mps 744 mmHg 72%
    18:00 +26°C° 0.3 mm 2 mps 744 mmHg 72%
    19:00 +24°C° 0 mm 3 mps 744 mmHg 74%
    20:00 +21°C° 0 mm 3 mps 744 mmHg 76%
    21:00 +19°C° 0 mm 3 mps 744 mmHg 78%
    22:00 +19°C° 0 mm 3 mps 744 mmHg 78%
    23:00 +18°C° 0 mm 3 mps 745 mmHg 79%

    Pasado mañana, 19 Junio, Miércoles

    Tiempo Temperatura Precipitaciones Viento Presión Humedad
    00:00 +17°C° 0 mm 3 mps 745 mmHg 79%
    01:00 +16°C° 0 mm 3 mps 745 mmHg 81%
    02:00 +16°C° 0 mm 3 mps 745 mmHg 83%
    03:00 +14°C° 0 mm 3 mps 745 mmHg 85%
    04:00 +14°C° 0 mm 3 mps 746 mmHg 84%
    05:00 +16°C° 0 mm 2 mps 746 mmHg 83%
    06:00 +16°C° 0 mm 2 mps 746 mmHg 83%
    07:00 +18°C° 0 mm 3 mps 746 mmHg 78%
    08:00 +19°C° 0 mm 3 mps 747 mmHg 74%
    09:00 +21°C° 0 mm 3 mps 747 mmHg 70%
    10:00 +22°C° 0 mm 3 mps 747 mmHg 65%
    11:00 +24°C° 0 mm 3 mps 747 mmHg 60%
    12:00 +25°C° 0 mm 3 mps 747 mmHg 55%
    13:00 +26°C° 0 mm 3 mps 747 mmHg 55%
    14:00 +26°C° 0 mm 3 mps 747 mmHg 55%
    15:00 +26°C° 0 mm 3 mps 747 mmHg 55%
    16:00 +26°C° 0 mm 3 mps 747 mmHg 58%
    17:00 +26°C° 0 mm 2 mps 747 mmHg 62%
    18:00 +26°C° 0 mm 2 mps 747 mmHg 65%
    19:00 +24°C° 0 mm 1 mps 747 mmHg 69%
    20:00 +22°C° 0 mm 1 mps 747 mmHg 74%
    21:00 +20°C° 0 mm 1 mps 747 mmHg 78%
    22:00 +20°C° 0 mm 1 mps 747 mmHg 79%
    23:00 +19°C° 0 mm 1 mps 747 mmHg 80%

    20 Junio, Jueves

    Tiempo Temperatura Precipitaciones Viento Presión Humedad
    00:00 +18°C° 0 mm 1 mps 747 mmHg 81%
    01:00 +18°C° 0 mm 1 mps 748 mmHg 82%
    02:00 +16°C° 0 mm 1 mps 748 mmHg 82%
    03:00 +16°C° 0 mm 2 mps 748 mmHg 83%
    04:00 +16°C° 0 mm 1 mps 748 mmHg 83%
    05:00 +18°C° 0 mm 1 mps 748 mmHg 82%
    06:00 +19°C° 0 mm 1 mps 748 mmHg 81%
    07:00 +20°C° 0 mm 1 mps 749 mmHg 76%
    08:00 +22°C° 0 mm 1 mps 749 mmHg 70%
    09:00 +24°C° 0 mm 1 mps 749 mmHg 64%
    10:00 +25°C° 0 mm 1 mps 749 mmHg 59%
    11:00 +26°C° 0 mm 1 mps 749 mmHg 54%
    12:00 +27°C° 0 mm 1 mps 749 mmHg 48%
    13:00 +28°C° 0 mm 1 mps 749 mmHg 47%
    14:00 +28°C° 0 mm 1 mps 748 mmHg 45%
    15:00 +26°C° 0 mm 0 mps 748 mmHg 44%
    16:00 +26°C° 0 mm 0 mps 748 mmHg 47%
    17:00 +26°C° 0 mm 0 mps 748 mmHg 51%
    18:00 +26°C° 0 mm 0 mps 748 mmHg 54%
    19:00 +24°C° 0 mm 0 mps 748 mmHg 57%
    20:00 +21°C° 0 mm 0 mps 748 mmHg 60%
    21:00 +21°C° 0 mm 1 mps 748 mmHg 62%
    22:00 +21°C° 0 mm 1 mps 748 mmHg 65%
    23:00 +20°C° 0 mm 1 mps 748 mmHg 68%

    21 Junio, Viernes

    Tiempo Temperatura Precipitaciones Viento Presión Humedad
    00:00 +19°C° 0 mm 1 mps 748 mmHg 70%
    01:00 +18°C° 0 mm 2 mps 748 mmHg 72%
    02:00 +17°C° 0 mm 2 mps 749 mmHg 75%
    03:00 +17°C° 0 mm 2 mps 749 mmHg 77%
    04:00 +17°C° 0 mm 2 mps 749 mmHg 78%
    05:00 +19°C° 0 mm 1 mps 749 mmHg 79%
    06:00 +20°C° 0 mm 1 mps 749 mmHg 80%
    07:00 +21°C° 0 mm 1 mps 749 mmHg 76%
    08:00 +23°C° 0 mm 2 mps 749 mmHg 72%
    09:00 +24°C° 0 mm 2 mps 749 mmHg 67%
    10:00 +25°C° 0 mm 2 mps 749 mmHg 63%
    11:00 +26°C° 0 mm 2 mps 749 mmHg 59%
    12:00 +27°C° 0 mm 2 mps 749 mmHg 54%
    13:00 +27°C° 0 mm 2 mps 749 mmHg 55%
    14:00 +28°C° 0 mm 2 mps 749 mmHg 56%
    15:00 +28°C° 0 mm 2 mps 749 mmHg 57%
    16:00 +27°C° 0 mm 2 mps 748 mmHg 59%
    17:00 +27°C° 0 mm 2 mps 748 mmHg 62%
    18:00 +27°C° 0 mm 2 mps 748 mmHg 65%
    19:00 +25°C° 0 mm 2 mps 748 mmHg 69%
    20:00 +24°C° 0 mm 2 mps 748 mmHg 72%
    21:00 +21°C° 0 mm 2 mps 748 mmHg 76%
    22:00 +20°C° 0 mm 2 mps 748 mmHg 77%
    23:00 +20°C° 0 mm 2 mps 748 mmHg 79%

    22 Junio, Sábado

    Tiempo Temperatura Precipitaciones Viento Presión Humedad
    00:00 +19°C° 0 mm 2 mps 748 mmHg 80%
    01:00 +19°C° 0 mm 2 mps 748 mmHg 81%
    02:00 +18°C° 0 mm 2 mps 748 mmHg 82%
    03:00 +18°C° 0 mm 2 mps 749 mmHg 83%
    04:00 +19°C° 0 mm 2 mps 749 mmHg 83%
    05:00 +19°C° 0 mm 2 mps 749 mmHg 84%
    06:00 +19°C° 0 mm 2 mps 749 mmHg 84%
    07:00 +21°C° 0 mm 2 mps 749 mmHg 79%
    08:00 +24°C° 0 mm 2 mps 749 mmHg 75%
    09:00 +25°C° 0 mm 3 mps 749 mmHg 70%
    10:00 +26°C° 0 mm 3 mps 749 mmHg 66%
    11:00 +27°C° 0 mm 3 mps 749 mmHg 63%
    12:00 +28°C° 0 mm 4 mps 749 mmHg 59%
    13:00 +28°C° 0 mm 4 mps 749 mmHg 59%
    14:00 +28°C° 0 mm 4 mps 748 mmHg 59%
    15:00 +28°C° 0 mm 4 mps 748 mmHg 59%
    16:00 +28°C° 0 mm 3 mps 748 mmHg 62%
    17:00 +28°C° 0 mm 3 mps 748 mmHg 66%
    18:00 +28°C° 0 mm 3 mps 748 mmHg 69%
    19:00 +26°C° 0 mm 2 mps 748 mmHg 72%
    20:00 +25°C° 0 mm 2 mps 748 mmHg 75%
    21:00 +23°C° 0 mm 2 mps 748 mmHg 78%
    22:00 +21°C° 0 mm 2 mps 748 mmHg 79%
    23:00 +21°C° 0 mm 2 mps 748 mmHg 80%
    Mostrar más